Retour au catalogue

STARLINK-31448

ActifCommunicationsVLEO
NORAD 59611·PAYLOAD·🇺🇸 United States

Lancé Apr 28, 2024 depuis Cape Canaveral Space Force Station

Loading…

Prochains Passages (prochaines 24 heures)

TLE

FraisSource: CelesTrak SupGP

Époque: Sep 14, 2026, 21:03 UTC

1 59611C 24080L   26257.87756944  .00039249  00000+0  14221-2 0  2573
2 59611  43.0040  46.0561 0001476 272.6326 173.7418 15.27547522    15

Suivez STARLINK-31448 en temps réel avec AllMySat

Download on the App Store